Location: Chircca
(13.7944°S, 72.0608°W)
Time: 04:12:29
(UTC+00:00)

FENGYUN 3A - Pass Details

Date: 14 July 2020
Orbit: 823 x 836 km, 98.4° (Epoch: 14 August)

Event Time Altitude Azimuth Distance (km) Brightness Sun altitude
Rises 09:33:23 0° 358° (N) 3,351 7.0 -23.6°
Reaches altitude 10° 09:35:51 10° 351° (N) 2,422 6.2 -23.0°
Enters shadow 09:40:51 42° 282° (WNW) 1,169 4.0 -21.8°
